Theta_e
302 302 303 302 303 303 304 305 306 306 305 306 307 307 307 306 305 305 305 304 304 306 309 312 321 330 329 328 327 327 327 328 328 326 324 323 323 324 324 325 325 324 324 325
301 302 303 304 305 306 306 306 306 306 306 307 307 307 306 305 305 304 305 305 304 304 306 309 314 328 330 327 328 327 328 326 326 325 324 322 322 322 323 324 324 324 324 324
303 301 303 305 305 306 307 308 307 308 308 307 306 305 303 304 302 302 302 303 304 304 304 308 315 325 330 327 328 327 328 326 325 324 322 321 320 321 320 321 322 322 322 322
302 303 304 305 306 306 309 306 307 308 309 307 306 308 306 304 303 302 303 302 301 301 303 307 312 324 330 328 327 327 327 327 325 322 321 321 318 314 313 316 317 316 315 316
301 303 303 304 305 306 305 306 307 308 307 307 307 309 306 304 305 308 309 308 307 307 308 307 306 313 326 329 327 327 327 327 326 322 321 319 319 316 315 314 311 307 307 307
301 301 303 304 305 302 303 305 305 304 307 308 305 305 306 305 309 311 309 307 306 305 305 305 307 309 323 329 327 327 327 326 326 321 320 320 318 312 308 305 305 302 302 301
299 299 300 301 300 301 302 302 296 297 298 300 304 306 307 309 311 310 309 307 305 304 304 304 304 305 308 326 327 326 326 326 325 321 320 319 316 315 313 308 304 300 298 296
298 294 300 300 300 301 302 304 308 309 302 305 307 307 307 311 310 309 308 306 304 303 302 302 302 303 306 308 323 325 325 326 323 320 319 317 315 312 308 305 303 299 296 293
298 299 299 298 300 300 298 302 307 310 303 308 306 307 307 310 307 305 307 304 303 302 301 301 301 301 303 304 306 323 324 325 322 320 317 315 311 310 305 301 298 296 293 291
299 299 297 299 300 304 305 307 306 303 309 309 306 305 307 308 305 304 304 302 302 302 301 300 300 301 302 303 305 313 324 324 320 317 314 310 309 306 302 298 295 293 291 291
299 298 298 298 300 300 297 299 305 306 307 312 310 308 309 305 304 303 303 301 301 301 300 299 298 300 301 302 304 309 323 322 316 312 306 304 302 299 296 293 291 290 291 292
299 298 298 298 298 298 300 304 304 305 306 306 308 306 307 303 302 303 301 300 299 298 298 298 299 301 304 309 313 317 316 313 308 304 301 298 295 293 292 291 291 291 291 292
295 290 294 293 296 301 300 300 303 304 303 305 308 306 305 303 303 301 300 298 297 298 297 298 300 300 300 301 303 304 302 299 297 296 295 292 290 290 289 290 291 292 292 291
298 297 292 293 297 297 299 299 300 303 305 307 306 307 305 304 303 301 299 297 297 297 297 298 297 295 296 295 295 295 294 294 292 291 290 290 290 290 290 290 290 291 291 290
296 293 290 294 296 296 297 299 301 304 307 306 307 307 305 304 301 300 296 296 296 296 296 296 295 294 292 291 291 290 290 290 290 290 289 289 289 289 289 289 289 290 289 284
295 288 296 295 297 298 300 300 302 306 306 307 306 306 303 301 299 298 295 294 294 294 294 294 293 293 292 291 291 290 290 289 289 289 288 288 287 287 288 289 288 284 282 282
293 294 292 290 295 297 299 303 303 305 306 306 306 305 302 299 298 297 295 293 292 291 292 292 292 292 291 290 290 290 289 289 289 288 287 287 286 286 286 285 283 282 281 281
290 295 295 290 289 296 301 301 301 304 304 304 301 300 299 298 298 296 294 293 292 291 290 291 291 290 290 289 289 289 288 287 287 286 285 285 285 283 282 282 281 281 281 280
294 296 293 290 287 294 301 302 301 303 306 300 298 298 297 297 299 297 293 292 291 290 290 290 289 289 289 288 288 288 287 287 286 285 284 283 283 282 281 281 281 281 281 281
295 295 293 279 291 290 299 301 298 301 305 296 296 296 296 298 299 296 292 291 290 289 288 288 288 287 287 287 287 286 286 285 284 284 283 282 282 281 281 281 281 282 282 281
286 294 295 287 289 290 294 297 299 304 306 295 295 294 295 297 297 294 291 290 289 288 288 287 287 286 285 286 286 285 284 283 282 282 281 281 281 282 282 282 281 280 279 279
289 290 286 291 288 293 297 297 298 299 294 292 292 293 293 294 295 292 290 289 288 288 287 286 285 284 285 286 285 282 281 281 281 281 281 282 281 281 281 280 279 279 279 278
289 292 293 293 294 294 297 298 295 291 292 291 290 292 291 294 293 291 290 289 288 287 286 285 285 283 283 283 283 281 280 282 282 282 281 281 281 280 280 280 279 279 278 277
289 289 294 296 292 293 294 294 291 291 291 290 290 290 290 293 292 290 289 288 287 286 286 285 284 282 281 282 282 281 282 282 282 281 280 280 280 280 280 280 279 279 278 278
288 289 286 289 291 291 291 290 291 290 289 288 288 288 288 291 290 289 288 287 286 285 285 284 283 282 281 282 281 281 281 281 280 280 280 280 280 280 279 279 279 279 278 279
286 288 290 290 289 289 294 289 289 289 289 287 287 288 286 287 288 287 286 285 285 285 284 284 283 282 281 282 281 281 282 282 281 280 281 280 279 279 279 278 278 278 278 278
Wind_Speed
5 4 2 5 3 5 6 6 10 14 14 9 13 25 21 17 18 20 18 17 16 11 9 18 17 29 31 38 35 36 37 39 38 35 35 31 31 35 33 33 31 32 31 26
6 2 3 6 4 6 8 9 9 10 7 11 16 23 24 22 21 19 19 17 15 14 9 12 19 22 27 32 39 40 41 39 40 37 36 29 33 31 31 30 32 33 32 28
3 7 8 4 7 6 6 5 6 12 15 11 10 10 7 13 7 7 9 13 13 15 14 11 10 18 26 32 35 38 43 41 40 35 32 29 33 29 27 29 30 28 28 26
5 5 6 8 7 3 6 5 12 17 11 6 6 7 13 9 9 6 8 10 11 9 11 10 9 10 22 27 32 42 44 40 38 40 41 43 34 23 22 31 27 26 24 24
6 6 10 10 3 4 10 11 15 16 15 7 3 3 9 4 5 7 8 12 12 12 10 10 12 20 26 30 33 32 39 41 36 42 45 41 31 28 33 31 28 24 23 22
7 5 3 4 3 5 8 9 15 2 1 3 4 4 9 3 3 5 9 9 10 13 13 13 18 19 22 28 31 31 33 36 36 40 42 41 35 35 35 33 30 25 22 21
8 6 4 3 7 6 10 4 4 6 3 6 2 3 10 1 2 5 9 14 14 9 12 12 11 13 18 14 28 32 33 35 35 39 41 38 43 45 44 41 36 30 26 23
4 10 5 3 2 5 5 2 3 5 3 12 8 6 5 4 1 6 9 12 14 16 12 13 9 12 18 17 15 31 35 32 32 39 38 36 43 41 39 40 39 34 32 30
4 6 5 12 4 4 5 2 7 5 3 4 3 6 3 5 14 23 24 22 20 17 17 17 13 13 18 21 18 23 30 34 37 41 34 39 40 40 39 37 37 35 33 34
2 9 5 6 5 1 4 2 4 3 5 5 4 5 5 11 18 19 23 23 21 20 17 18 14 15 16 22 21 20 34 34 35 35 39 38 40 39 39 39 38 37 37 37
3 4 7 6 1 4 5 4 2 3 4 4 6 4 3 9 21 21 23 23 24 23 21 19 16 20 23 27 25 22 31 28 32 34 32 36 35 36 37 38 38 40 41 38
2 4 6 8 14 9 4 1 1 3 4 5 5 7 5 20 18 18 23 22 21 21 18 16 14 18 19 15 20 20 28 32 33 34 36 35 36 36 42 44 44 43 45 42
2 3 6 10 6 2 3 7 5 8 6 7 4 7 19 22 21 21 20 23 20 17 16 12 9 6 6 9 15 22 27 31 33 35 38 37 37 40 39 48 50 50 45 40
0 3 7 6 10 8 11 16 19 8 4 5 8 19 25 25 26 25 20 18 16 14 13 8 5 5 8 13 18 23 28 34 36 37 37 40 40 44 47 43 47 49 44 39
1 5 3 12 21 17 18 18 19 15 11 3 15 20 21 22 22 13 17 17 15 13 9 7 5 5 9 15 23 24 30 36 40 43 39 42 46 50 48 46 44 45 42 36
1 4 4 7 4 6 11 15 11 10 7 11 13 18 20 23 18 14 16 15 14 12 9 8 7 8 10 16 23 26 31 36 43 39 45 42 42 45 49 48 46 43 38 34
2 2 5 6 9 13 3 3 4 5 7 8 9 17 15 24 20 16 17 15 13 13 11 11 10 8 14 18 22 31 31 40 43 41 43 41 45 44 45 47 43 38 36 34
2 3 2 5 8 4 4 3 3 5 12 6 13 17 16 19 18 11 16 14 13 13 13 12 10 16 20 24 29 33 35 39 42 39 41 41 42 43 38 38 40 37 34 30
7 1 3 2 1 8 6 2 3 1 4 7 12 16 16 19 10 6 17 13 13 12 11 17 23 22 25 26 29 35 35 40 40 37 37 37 38 37 39 38 36 34 32 29
4 4 1 3 1 4 4 1 4 4 3 10 10 14 17 15 10 7 15 13 12 18 19 19 24 28 25 25 33 34 32 34 32 33 33 33 34 33 35 36 35 32 30 29
2 3 6 3 4 8 10 6 3 4 5 8 7 9 12 7 4 7 9 10 16 18 21 23 27 28 24 27 34 31 30 29 31 30 28 32 34 37 36 34 32 31 29 29
7 6 4 3 2 7 2 3 2 3 4 4 4 6 9 10 9 7 8 9 12 15 19 21 23 23 25 28 34 28 26 23 29 32 33 33 31 31 32 31 28 28 28 27
3 7 4 9 6 6 2 3 3 2 2 4 4 4 7 8 7 8 7 8 11 14 16 18 19 22 24 24 26 27 24 29 32 32 31 30 28 27 27 28 27 26 24 24
5 5 4 0 5 8 5 3 3 4 3 1 2 3 4 3 4 6 7 7 10 14 15 17 20 20 21 23 26 27 27 28 31 32 30 28 28 26 24 23 22 23 22 21
5 6 5 6 10 11 13 6 5 3 3 3 2 2 4 4 5 6 7 7 10 13 16 18 18 17 19 22 24 24 26 28 31 30 29 27 25 24 22 19 18 18 13 13
6 7 7 7 7 2 1 4 4 3 1 4 2 3 5 7 5 7 6 8 10 13 15 18 19 19 19 20 20 19 21 24 28 28 26 25 25 24 24 24 22 14 15 15
Wind_Direction
335 47 338 304 294 248 261 273 282 285 280 294 287 288 291 289 275 274 267 273 274 259 271 277 267 228 210 200 195 190 187 190 184 187 187 191 189 196 197 201 201 200 204 209
9 316 219 302 312 302 290 293 289 288 283 300 294 284 283 275 271 265 269 268 266 271 260 261 266 236 211 201 192 191 190 184 185 186 188 189 191 190 193 196 200 198 198 199
202 261 323 328 318 320 300 258 280 287 311 286 299 299 332 293 258 267 264 264 261 250 254 252 242 239 207 202 197 191 189 186 185 181 179 181 179 177 173 178 180 184 188 190
273 290 324 313 302 270 292 273 292 297 318 307 73 295 284 288 312 352 333 333 314 279 261 247 227 235 207 203 205 195 190 185 182 177 179 180 177 171 180 175 176 178 182 182
265 295 325 322 289 307 264 284 286 286 284 295 14 241 272 303 312 347 348 345 339 347 356 334 302 240 223 199 204 204 193 190 183 181 185 180 179 181 181 177 173 175 172 178
263 287 239 236 296 270 292 318 307 358 219 260 254 152 278 291 309 328 328 335 339 334 333 332 327 320 232 203 196 197 193 189 184 179 187 182 177 178 172 174 167 166 164 165
325 298 295 14 332 324 17 3 332 348 4 224 265 292 247 44 1 323 322 332 333 331 328 326 327 330 336 236 194 188 190 187 182 178 187 182 185 187 184 180 178 169 162 161
345 334 10 23 265 283 314 122 275 294 288 292 276 231 271 111 333 305 320 321 322 334 329 315 313 313 310 314 244 190 186 187 177 179 184 182 189 183 181 180 178 172 165 161
330 271 305 306 278 112 289 340 277 267 242 267 268 293 268 6 355 349 339 339 328 322 321 314 313 299 294 297 291 209 192 186 179 181 173 182 183 182 177 174 171 166 160 153
273 294 266 289 320 118 203 320 333 3 299 294 276 277 257 4 346 333 329 325 318 315 314 311 308 299 289 284 278 262 194 188 179 171 175 172 178 180 175 170 161 157 153 149
2 202 291 350 309 313 338 332 12 272 239 291 322 264 161 344 339 330 327 322 319 315 311 308 303 297 293 280 267 253 196 178 159 164 159 161 162 162 155 147 142 144 145 143
237 285 282 275 287 280 223 84 296 249 314 269 255 272 176 341 330 327 322 317 317 312 307 304 297 299 288 273 242 187 162 154 150 151 148 143 143 141 139 136 137 141 137 137
268 308 310 336 355 28 337 304 269 291 266 241 282 283 322 319 325 326 324 326 322 314 310 306 310 324 356 47 89 113 123 121 127 129 130 126 126 128 125 128 133 136 134 135
207 239 201 222 257 301 296 297 304 298 262 301 274 301 318 324 329 329 334 331 325 324 320 318 349 19 40 64 87 100 105 112 117 116 116 116 117 120 122 121 128 129 131 129
65 263 222 256 262 275 271 279 292 297 295 277 296 299 315 320 325 325 331 333 336 338 346 359 14 62 67 80 86 94 101 107 113 111 109 114 118 120 120 123 127 126 124 132
350 274 302 293 287 247 269 285 274 303 290 271 286 305 331 320 329 346 345 347 348 350 2 15 31 62 78 89 96 94 101 104 108 108 109 111 113 116 123 126 126 125 131 136
269 300 349 271 322 312 347 241 277 303 272 297 327 319 324 327 336 356 350 358 360 2 16 27 32 58 80 88 102 102 108 109 107 109 110 113 118 116 120 126 127 131 139 142
224 304 293 279 338 11 242 258 268 260 287 344 322 320 331 321 325 6 2 4 9 17 25 34 42 63 76 91 95 104 101 102 105 105 107 112 115 116 121 128 134 139 137 137
219 237 286 300 240 291 308 51 328 4 294 346 319 327 339 329 317 14 359 11 24 24 38 53 55 62 74 84 92 95 98 99 99 102 107 115 120 124 133 131 132 133 135 134
201 215 154 5 11 242 243 5 307 149 281 356 348 335 337 338 13 356 349 4 31 37 41 54 63 60 64 78 90 86 88 94 96 106 112 120 126 124 128 130 133 136 132 130
211 200 221 248 272 283 258 279 156 34 310 336 341 334 333 352 358 333 352 21 33 40 45 55 64 58 57 76 88 81 86 87 104 111 122 125 131 133 134 133 135 136 135 137
175 157 201 152 223 278 207 4 60 265 313 308 332 326 331 333 356 11 16 32 43 50 51 56 66 62 71 86 95 87 86 103 119 126 126 125 127 131 133 135 136 138 138 130
254 196 181 190 218 241 258 221 227 212 251 322 322 324 334 343 3 18 27 35 48 57 63 69 73 71 72 87 99 96 112 124 124 123 123 125 128 129 135 137 138 136 135 132
243 178 225 265 251 245 212 200 205 219 160 316 282 326 344 3 1 30 42 52 58 57 66 80 77 70 74 103 110 115 125 130 130 125 124 127 129 132 133 136 139 138 139 135
208 144 186 266 279 278 267 223 207 211 153 107 323 54 23 14 44 58 50 45 57 70 82 93 94 88 97 116 120 131 136 138 130 130 132 130 128 128 128 124 127 128 131 145
190 188 185 220 231 195 276 155 160 190 63 16 28 46 45 42 60 66 56 61 82 88 106 106 110 110 119 124 126 134 142 145 139 134 134 135 133 130 125 120 109 107 119 127